FLOCK 4A-14 (44101 NORAD) Tracking and Keplerian Element Data

This shows tracking and keplerian element data for the satellite.

Feedback or suggestion? Click here.




ElementValue
Catalog44101
NameFLOCK 4A-14
Epoch Orbit431
Epoch Day119.67134325
Epoch Year2019
RAAN180.012
Inclination97.461
Eccentricity0.0012112
Argument of Perigee190.2563
Mean Anonmoly169.8428
Mean Motion15.22183337
Decay Rate8.24E-06
L11 44101U 19018Z 19119.67134325 .00000824 00000-0 38922-4 0 9993
L22 44101 97.4610 180.0120 0012112 190.2563 169.8428 15.22183337 4315

Live tracking and technical data element details for FLOCK 4A-14 (NORAD 44101). FLOCK 4A-14 can be tracked NOW for your location showing map with azimuth and elevation plus other details from your city location.

Track the satellite on the map from your city or location and see movement details for azimuth, elevation, latitude, longitude, range, height, and movement on the map or in text.







IsCatalogInMostPopularTable: catalog: 44101, numindb: 45
Update: records affected: 1



GetName: 44101 FLOCK 4A-14

Hit Count: updated at: Mon, 22 Jul 2019 15:52:24 GMT